STARLINK-36751

Last updated on Sat Mar 14 2026 00:02:06 GMT+0000 (Coordinated Universal Time)

1 67729U 26026J 26072.58334491 .00046489 00000+0 13986-2 0 9990 2 67729 97.2847 127.1311 0000855 102.1481 219.6170 15.34228161 5948
UTC large
Height (km)
Speed (km/s)
/
Latitude / Longitude
Inclination (degrees)
Orbital Period (minutes)
Azimuth
Elevation
Range (km)
Doppler Factor

Next 0 passes for location: London (51.5072 / 0.1276)

Sorry there are no passes over London.